Regional Weather Roundup
Issued by NWS

Home | Current Version | Previous Version | Text Only | Print | Product List | Glossary Off
Versions: 1 2 3 4 5 6 7 8 9 10 11 12 13 14 15 16 17 18 19 20 21 22 23 24 25 26 27 28 29 30 31 32 33 34 35 36 37 38 39 40 41 42 43 44 45 46 47 48 49 50

000
ASUS43 KLOT 210904
RWRIL

ILLINOIS REGIONAL WEATHER ROUNDUP
NATIONAL WEATHER SERVICE CHICAGO/ROMEOVILLE IL
400 AM CDT SAT OCT 21 2017

NOTE: "FAIR" INDICATES FEW OR NO CLOUDS BELOW 12,000 FEET WITH NO
SIGNIFICANT WEATHER AND/OR OBSTRUCTIONS TO VISIBILITY.

* THESE STATIONS ARE NOT UNDER NWS QUALITY CONTROL. THEY ALSO MAY NOT
  REPORT WEATHER SUCH AS PRECIPITATION OR FOG.

ILZ001-002-007-009-015-016-024-211000-
NORTHWEST ILLINOIS

CITY           SKY/WX    TMP DP  RH WIND       PRES   REMARKS
MOLINE         MOCLDY    65  50  58 S15G22    29.95F
STERLING*      CLOUDY    63  51  65 VRB6        N/A
SAVANNA*       CLOUDY    58  50  75 SE5       29.96F
$$

ILZ003-004-008-010-011-017-018-211000-
NORTH CENTRAL ILLINOIS

CITY           SKY/WX    TMP DP  RH WIND       PRES   REMARKS
ROCKFORD       CLOUDY    60  50  69 S10       30.02F
FREEPORT*      MOCLDY    60  49  66 S10       30.00F
ROCHELLE*      PTCLDY    59  51  74 S6        30.03S
$$

ILZ005-006-012>014-019>023-211000-
NORTHEAST ILLINOIS

CITY           SKY/WX    TMP DP  RH WIND       PRES   REMARKS
CHICAGO-OHARE  CLOUDY    63  48  58 S12       30.05S
CHICAGO-MIDWAY CLOUDY    63  49  60 S10       30.06S
AURORA         PTCLDY    59  50  72 S7        30.05R
LANSING*       CLOUDY    59  51  74 S8        30.08S
JOLIET*        CLOUDY    61  51  69 S5        30.06F
WAUKEGAN       CLOUDY    64  49  57 S10       30.03S
DUPAGE AIRPORT CLOUDY    61  50  67 S12       30.05R
KANKAKEE*      CLOUDY    59  49  69 S7        30.09R
WHEELING       CLOUDY    64  50  60 S9        30.06S
MORRIS*        CLOUDY    59  49  70 S3        30.05S
NORTHERLY ISL    N/A     64  47  53 S13         N/A
$$

LMZ740>746-211000-
SOUTHERN LAKE MICHIGAN

STATION/POSITION SKY/WX   TEMP    WIND        PRES    VSBY  WAVE
                          AIR SEA DIR/SP/G                  HT/PER
                          (F)     (DEG/KT/KT) (MB)    (MI)  (FT/S)
SOUTHERN BUOY              63 61  190/ 16/ 17 1017.8          2/ 4
WILMETTE HARBOR            64 60  190/ 14/ 17   N/A           2/ 3
HARRISON CRIB              65     190/ 19/ 19   N/A
BURNHAM HARBOR             64     190/  9/ 13   N/A
CALUMET HARBOR             62     180/  8/ 11 1017.4F
BURNS HARBOR               61     180/ 12/ 17 1018.6F
MICHIGAN CITY              61     170/ 11/ 13   N/A
MICHIGAN CITY 6N           60 58  180/ 10/ 12   N/A           1/ 2
ST. JOSEPH                 60 59  200/  8/ 10 1019.2R         1/ 3
$$

ILZ025>027-034>036-040-047-049-050-058-095>099-211000-
WEST-CENTRAL ILLINOIS

CITY           SKY/WX    TMP DP  RH WIND       PRES   REMARKS
QUINCY         CLOUDY    63  51  65 S10       29.97F
GALESBURG*     CLOUDY    67  58  73 SE8       29.99F
MACOMB*        MOCLDY    60  52  73 S10       30.00F
JACKSONVILLE*  CLOUDY    63  51  65 S12       30.02S
$$

ILZ028>032-037-038-041>044-048-051>054-059>061-211000-
CENTRAL ILLINOIS

CITY           SKY/WX    TMP DP  RH WIND       PRES   REMARKS
BLOOMINGTON    CLOUDY    59  49  69 S10       30.07F
DECATUR        CLOUDY    60  49  66 S9        30.08S
PEORIA         CLOUDY    61  52  72 S9        30.03F
LACON*         PTCLDY    62  51  66 S9        30.02S
LINCOLN*       CLOUDY    62  52  68 S8        30.05S
SPRINGFIELD    MOCLDY    63  52  67 S9        30.04F
TAYLORVILLE    CLOUDY    59  49  71 SE8       30.07S
$$

ILZ033-039-045-046-055>057-062-063-211000-
EAST-CENTRAL ILLINOIS

CITY           SKY/WX    TMP DP  RH WIND       PRES   REMARKS
CHAMPAIGN      CLOUDY    55  48  77 SE5       30.10R
DANVILLE*      PTCLDY    55  48  80 SE3       30.09S
MATTOON        CLOUDY    58  50  75 S6        30.09R
PARIS*         CLOUDY    55  49  82 SE5       30.12S
$$

ILZ079-100>102-211000-
SOUTHWEST ILLINOIS

CITY           SKY/WX    TMP DP  RH WIND       PRES   REMARKS
ALTON          CLOUDY    54  52  92 CALM      30.06S
CAHOKIA*       CLOUDY    63  51  65 SE5       30.05R
SPARTA*        PTCLDY    62  50  66 S7        30.08R
$$

ILZ064>066-069>071-074>076-080>082-084>086-088>090-092>094-211000-
SOUTH-CENTRAL ILLINOIS

CITY           SKY/WX    TMP DP  RH WIND       PRES   REMARKS
CARBONDALE     CLOUDY    57  51  80 S7        30.09S
EFFINGHAM*     PTCLDY    56  51  82 SE3       30.12R
MARION         MOCLDY    62  49  64 S9        30.10S
MT. VERNON     CLOUDY    56  48  74 CALM      30.10S
CENTRALIA*     CLEAR     58  50  75 SE6       30.08S
SALEM*         PTCLDY    62  48  61 SE5       30.09S
METROPOLIS*    CLOUDY    54  51  88 CALM      30.12S
$$

ILZ067-068-072-073-078-083-087-091-211000-
SOUTHEAST ILLINOIS

CITY           SKY/WX    TMP DP  RH WIND       PRES   REMARKS
LAWRENCEVILLE  MOCLDY    54  49  83 S6        30.12S
FLORA*         CLOUDY    56  50  81 S7        30.11R
FAIRFIELD*     MOCLDY    58  48  69 CALM      30.10S
HARRISBURG*    MOCLDY    55  50  82 E3        30.11S
ROBINSON*      CLOUDY    49  47  93 SE7       30.12F
CARMI*         CLOUDY    51  47  85 SE3       30.12R
$$

ABBREVIATIONS USED IN REMARKS
   TC - TEMPERATURE IN CELSIUS
  WCI - WIND CHILL INDEX
   HX - HEAT INDEX
  VSB - VISIBILITY
$$





USA.gov is the U.S. government's official web portal to all federal, state and local government web resources and services.